User: anonymous   Login
Location: Rancho Del Sol Observatory
(38.7214°N, 120.6350°W)
Time: 08:30:12
(UTC-08:00)
Language:

Altair - Orbit

View from above orbital plane
View from above orbital plane
View from above satellite
View from above satellite

Ground track
Ground track

The orbit data is extracted from the following two-line orbital elements,

1    50U 60009B   20019.50382642 -.00000107  00000-0 -21120-3 0  9991
2    50  47.2285 226.6635 0113276 238.8285 120.1357 12.20108993652367
Epoch (UTC): 19 January 2020 12:05:30
Eccentricity: 0.0113276
inclination: 47.2285°
perigee height: 1502 km
apogee height: 1682 km
right ascension of ascending node: 226.6635°
argument of perigee: 238.8285°
revolutions per day: 12.20108993
mean anomaly at epoch: 120.1357°
orbit number at epoch: 65236

The dashed part of the orbit path shows where the satellite is in the earth's shadow,  

DLR